Location: Kailua
(21.4020°N, 157.7390°W)
Time: 08:05:54
(UTC-10:00)

Daily predictions for brighter satellites

Satellite Brightness Start Highest point End
(mag) Time Altitude Azimuth Time Altitude Azimuth Time Altitude Azimuth
Cosmos 2184 Rocket 4.3 18:38:06 10° SSE 18:44:00 44° E 18:49:58 10° NNE
CZ-4 R/B 2.7 18:40:12 10° S 18:44:09 47° W 18:48:11 10° NNW
Cosmos 909 Rocket 4.5 18:40:36 10° NNW 18:48:03 51° ENE 18:54:18 10° SE
Mugunghwa Rocket 4.4 18:41:35 10° WSW 18:49:24 72° SSE 18:56:21 10° ENE
METEOR-M 4.1 18:44:15 10° SSE 18:49:32 66° ENE 18:54:49 10° N
Gbstr 26 Del rocket 4.0 18:46:25 10° S 18:50:13 30° ESE 18:54:41 10° ENE
SL-27 R/B 3.4 18:47:40 10° SSE 18:50:45 28° E 18:53:51 10° NE
FENGYUN 3A 4.2 18:46:14 10° SE 18:51:03 35° ENE 18:55:52 10° N
MONITOR-E 4.1 18:50:40 10° SSE 18:53:44 89° ENE 18:56:49 10° N
Cosmos 1656 Rocket 4.3 18:50:13 10° N 18:55:12 33° ENE 19:00:06 10° SE
Yuri Rocket 4.3 18:51:18 10° WNW 18:56:25 39° N 19:00:34 10° ENE
EXPRESS MD2 3.5 18:57:46 10° NW 19:00:48 75° SW 19:06:39 10° SE
Cosmos 2327 Rocket 4.5 18:55:19 10° S 19:01:19 58° E 19:07:15 10° NNE
Lacrosse 5 4.1 18:57:16 10° WNW 19:01:28 27° WSW 19:05:40 10° S
Cosmos 1378 3.1 18:59:02 10° N 19:02:47 67° E 19:06:30 10° SSE
Cosmos 540 Rocket 3.6 18:58:28 10° SSW 19:03:33 81° WNW 19:08:39 10° NNE
Cosmos 292 Rocket 4.2 19:00:23 10° SSE 19:04:49 38° E 19:09:18 10° NNE
Aurora 2 Rocket 4.2 19:01:39 10° W 19:07:47 60° SSW 19:16:14 11° ESE
Cosmos 1758 Rocket 4.0 19:04:02 10° N 19:08:30 69° W 19:12:56 10° S
Cosmos 2150 Rocket 4.0 19:03:44 10° NNW 19:09:08 84° ENE 19:14:35 10° SSE
Cosmos 1766 3.1 19:05:22 10° S 19:09:17 78° E 19:13:12 10° N
XTE 3.2 19:08:56 10° WSW 19:11:40 46° SSE 19:13:00 25° ESE
Cosmos 1707 2.9 19:08:06 10° N 19:12:01 75° W 19:15:54 10° S
Cosmos 1937 Rocket 3.7 19:07:45 10° NNW 19:13:00 77° WSW 19:18:11 10° S
USA 81 4.0 19:08:51 10° N 19:14:09 83° E 19:19:25 10° S
Cosmos 1356 Rocket 3.5 19:14:30 10° N 19:18:44 55° E 19:22:55 10° SSE
USA 229 DEB 4.1 19:13:35 10° NNW 19:20:50 73° WSW 19:28:10 10° SSE
USA 229 4.1 19:13:41 10° NNW 19:20:56 73° WSW 19:28:15 10° SSE
NOSS 3-3 (A) 4.3 19:19:27 10° S 19:24:55 39° ESE 19:30:35 10° NE
NOSS 3-3 (C) 4.3 19:19:35 10° S 19:25:01 38° ESE 19:30:39 10° NE
NOSS 3-1 (A) 4.5 19:18:03 10° N 19:25:42 44° ENE 19:31:59 17° SE
Cosmos 482 Debris 2.8 19:24:26 10° NW 19:27:16 65° NE 19:27:17 65° NE
FREGAT/IRIS 2.5 19:26:58 21° SSE 19:28:45 59° ENE 19:31:44 10° N
ALOS 2.4 19:25:19 10° S 19:29:57 75° WSW 19:34:37 10° NNW
Cosmos 1833 Rocket 3.4 19:27:04 10° SSE 19:31:55 30° ESE 19:33:27 26° ENE
In-Cosmos 22 4.3 19:27:01 10° N 19:32:38 54° E 19:38:15 10° SSE
NOSS 3-1 (C) 4.1 19:25:00 10° NNW 19:33:05 68° ENE 19:41:38 10° SE
Cosmos 1758 3.3 19:31:45 10° S 19:35:42 57° E 19:39:37 10° NNE
SWIFT 4.4 19:35:49 10° WSW 19:38:45 18° SSW 19:40:47 14° SSE
Cosmos 1805 3.4 19:35:21 10° S 19:39:14 74° W 19:43:06 10° N
FengYun 1-2 T 4.2 19:35:19 10° SSE 19:40:53 69° ENE 19:46:25 10° N
NATO 3D Rocket 3.8 19:34:06 10° W 19:41:30 89° N 19:43:54 37° E
Cosmos 1812 Rocket 3.7 19:37:09 10° S 19:41:33 75° W 19:46:01 10° N
Cosmos 2154 Rocket 3.9 19:43:22 10° S 19:49:34 90° E 19:55:50 10° N
Resurs 01 Rocket 3.7 19:54:41 15° NNE 19:54:41 15° NNE 19:55:36 10° NNE
Cosmos 2082 Rocket 2.1 19:52:55 10° S 19:58:25 59° ESE 19:59:51 45° NE
ATLAS 5 CENTAUR R/B 1.7 19:56:16 10° SSW 20:00:43 73° WNW 20:02:48 32° NNE
GP-B 3.1 19:57:36 10° N 20:01:31 67° NNE 20:01:31 67° NNE
FALCON 9 R/B 3.7 20:01:43 10° NNW 20:04:47 21° NNE 20:04:47 21° NNE
Cosmos 2341 Rocket 3.8 19:58:58 10° S 20:05:09 83° E 20:11:22 10° N
MOS 1-B Rocket 4.5 20:08:43 42° NE 20:08:43 42° NE 20:13:07 10° N
Lacrosse 4 Rocket 1.9 20:03:12 10° SSW 20:06:40 54° SSW 20:06:40 54° SSW
H-2A R/B 4.5 20:14:42 22° SW 20:16:16 30° W 20:19:35 10° NW
USA 234 3.5 20:13:40 31° SSE 20:16:57 64° SW 20:23:26 10° NW
ATLAS 2AS CENTAUR RB 4.1 20:08:39 10° WSW 20:19:08 22° SSW 20:20:27 20° S
SJ-6B 4.3 20:18:29 29° SW 20:19:40 36° W 20:23:20 10° NNW
Geosat 4.3 20:20:01 57° SSW 20:20:43 64° WSW 20:25:42 10° NNW
Cosmos 372 Rocket 4.1 20:16:38 10° NNW 20:21:28 73° NW 20:21:28 73° NW
OAO 3 Rocket 4.5 20:17:55 10° W 20:22:19 33° NNW 20:22:31 33° NNW
Cosmos 1953 4.1 20:22:34 10° SW 20:26:07 30° W 20:29:43 10° NNW
SEDSat Delta rocket 4.2 20:22:01 10° SW 20:26:44 53° SSW 20:26:44 53° SSW
Cosmos 1125 Rocket 4.0 20:22:49 10° NNW 20:28:00 58° WSW 20:28:27 56° SW
Nadezhda 3 Rocket 4.1 20:24:19 10° N 20:30:33 73° W 20:32:13 49° SSW
Cosmos 1809 Rocket 4.4 20:24:57 10° S 20:31:05 80° W 20:37:13 10° N
Mugunghwa Rocket 4.4 20:38:15 10° W 20:44:57 61° NNW 20:44:57 61° NNW
ATLAS CENTAUR R/B 4.2 20:45:24 10° NW 20:49:17 27° WNW 20:49:17 27° WNW
SJ 16-02 4.1 20:52:33 10° NW 20:53:10 13° NW 20:53:10 13° NW
